This demonstration page uses our WeatherBlox Daily Observations layout. Learn more.

Left ArrowRight Arrow

36.17497, -115.13722

Hourly Observations for August 30, 2016

Temp ( °F °C ) Dew Point ( °F °C ) Humidity (%) Winds ( mph kmh ) Pressure ( in mb ) Visibility ( mi km ) Precip ( " mm )
12:53 am 00:53 Clear 86 30 38 3.3 18 18 W 6 9 29.88 1012 10 16.0934 0 0
1:53 am 01:53 Clear 85 29.4 37 2.8 18 18 NNW 3 6 29.87 1012 10 16.0934 0 0
2:53 am 02:53 Clear 82 27.8 39 3.9 22 22 Calm 29.88 1012 10 16.0934 0 0
3:53 am 03:53 Clear 80 26.7 41 5 25 25 WNW 3 6 29.89 1012 10 16.0934 0 0
4:53 am 04:53 Clear 78 25.6 41 5 27 27 NW 3 6 29.9 1012 10 16.0934 0 0
5:53 am 05:53 Clear 78 25.6 41 5 27 27 N 5 7 29.89 1012 10 16.0934 0 0
6:53 am 06:53 Sunny 80 26.7 40 4.4 24 24 NW 5 7 29.91 1013 10 16.0934 0 0
7:53 am 07:53 Sunny 83 28.3 39 3.9 21 21 Calm 29.93 1014 10 16.0934 0 0
8:53 am 08:53 Sunny 88 31.1 42 5.6 20 20 Calm 29.93 1014 10 16.0934 0 0
9:53 am 09:53 Sunny 91 32.8 39 3.9 16 16 SSE 5 7 29.94 1014 10 16.0934 0 0
10:53 am 10:53 Sunny 96 35.6 39 3.9 14 14 ESE 9 15 29.93 1014 10 16.0934 0 0
11:53 am 11:53 Sunny 98 36.7 39 3.9 13 13 Calm 29.91 1013 10 16.0934 0 0
12:53 pm 12:53 Sunny 100 37.8 39 3.9 12 12 SSE 7 11 29.89 1012 10 16.0934 0 0
1:53 pm 13:53 Sunny 102 38.9 38 3.3 11 11 SE 8 13 29.86 1011 10 16.0934 0 0
2:53 pm 14:53 Sunny 102 38.9 38 3.3 11 11 VRB 7 11 29.83 1010 10 16.0934 0 0
3:53 pm 15:53 Sunny 103 39.4 37 2.8 10 10 S 8 13 29.82 1010 10 16.0934 0 0
4:53 pm 16:53 Sunny 102 38.9 37 2.8 10 10 S 5 7 29.8 1009 10 16.0934 0 0
5:53 pm 17:53 Sunny 102 38.9 37 2.8 10 10 E 8 13 29.8 1009 10 16.0934 0 0
6:53 pm 18:53 Sunny 101 38.3 37 2.8 11 11 Calm 29.79 1009 10 16.0934 0 0
7:53 pm 19:53 Clear 98 36.7 39 3.9 13 13 SSW 7 11 29.79 1009 10 16.0934 0 0
8:53 pm 20:53 Clear 96 35.6 41 5 15 15 SW 5 7 29.8 1009 10 16.0934 0 0
9:53 pm 21:53 Clear 93 33.9 41 5 16 16 W 3 6 29.81 1010 10 16.0934 0 0
10:53 pm 22:53 Clear 89 31.7 41 5 19 19 ENE 5 7 29.82 1010 10 16.0934 0 0
11:53 pm 23:53 Clear 88 31.1 44 6.7 22 22 Calm 29.83 1010 10 16.0934 0 0

Powered by AerisWeather